Antigo, WI

4:09 AM CDT on March 30, 2017 (GMT -0500)
Langlade County

Weather History for KAIG - January, 2012

Change the Weather History Date:

Saturday, January 7, 2012

  Actual Average Record
Temperature  
Mean Temperature 28 °F -  
Max Temperature 32 °F 19 °F 40 °F (1949)
Min Temperature 23 °F 1 °F -29 °F (1968)
Degree Days  
Heating Degree Days 38    
Moisture  
Dew Point 20 °F    
Average Humidity 73    
Maximum Humidity 86    
Minimum Humidity 64    
Precipitation  
Precipitation 0.00 in - - ()
Sea Level Pressure  
Sea Level Pressure 29.91 in    
Wind  
Wind Speed 11 mph (WNW)    
Max Wind Speed 18 mph    
Max Gust Speed 26 mph    
Visibility 10 miles    
Events      
Averages and records for this station are not official NWS values.
T = Trace of Precipitation, MM = Missing Value Source: NWS Daily Summary

Daily Weather History Graph

Daily Weather History Graph

Search for Another Location

Airport or City:

Trip Planner

Search our weather history database for the weather conditions in past years. The results will help you decide how hot, cold, wet, or windy it might be!

Date:

Astronomy

Jan. 07, 2012 Rise Set
Actual Time 7:34 AM CST 4:30 PM CST
Civil Twilight 7:01 AM CST 5:04 PM CST
Nautical Twilight 6:24 AM CST 5:41 PM CST
Astronomical Twilight 5:48 AM CST 6:16 PM CST
Moon 3:13 PM CST (1/7) 6:07 AM CST (1/7)
Length of Visible Light 10h 02m
Length of Day
8h 55m
Waxing Gibbous, 97% of the Moon is Illuminated
Jan 7
Waxing Gibbous
Jan 9
Full
Jan 16
Last Quarter
Jan 23
New
Jan 30
First Quarter

Hourly Weather History & Observations

Time (CST) Temp. Windchill Dew Point Humidity Pressure Visibility Wind Dir Wind Speed Gust Speed Precip Events Conditions
12:15 AM 30.2 °F 20.8 °F 24.8 °F 80% 29.65 in 10.0 mi West 11.5 mph - N/A   Mostly Cloudy
12:35 AM 32.0 °F 24.2 °F 24.8 °F 75% 29.65 in 10.0 mi West 9.2 mph 17.3 mph N/A   Overcast
12:55 AM 32.0 °F 23.6 °F 24.8 °F 75% 29.66 in 10.0 mi West 10.4 mph - N/A   Overcast
1:15 AM 30.2 °F 21.9 °F 24.8 °F 80% 29.67 in 10.0 mi West 9.2 mph - N/A   Mostly Cloudy
1:35 AM 30.2 °F 21.3 °F 24.8 °F 80% 29.67 in 10.0 mi West 10.4 mph - N/A   Mostly Cloudy
1:55 AM 32.0 °F 23.6 °F 24.8 °F 75% 29.68 in 10.0 mi West 10.4 mph - N/A   Overcast
2:35 AM 32.0 °F 22.5 °F 26.6 °F 80% 29.70 in 10.0 mi West 12.7 mph - N/A   Mostly Cloudy
2:55 AM 32.0 °F 21.2 °F 26.6 °F 80% 29.70 in 10.0 mi WNW 16.1 mph 23.0 mph N/A   Overcast
3:15 AM 32.0 °F 21.6 °F 26.6 °F 80% 29.71 in 10.0 mi WNW 15.0 mph 20.7 mph N/A   Overcast
3:35 AM 30.2 °F 19.3 °F 24.8 °F 80% 29.72 in 10.0 mi NW 15.0 mph 20.7 mph N/A   Mostly Cloudy
3:55 AM 30.2 °F 18.9 °F 24.8 °F 80% 29.73 in 10.0 mi NW 16.1 mph 25.3 mph N/A   Mostly Cloudy
4:15 AM 30.2 °F 20.2 °F 24.8 °F 80% 29.74 in 10.0 mi NW 12.7 mph 23.0 mph N/A   Overcast
4:35 AM 30.2 °F 20.2 °F 24.8 °F 80% 29.75 in 10.0 mi NW 12.7 mph - N/A   Overcast
4:55 AM 30.2 °F 19.3 °F 23.0 °F 75% 29.77 in 10.0 mi NNW 15.0 mph 20.7 mph N/A   Overcast
5:35 AM 28.4 °F 16.6 °F 21.2 °F 74% 29.80 in 10.0 mi NW 16.1 mph 26.5 mph N/A   Overcast
5:55 AM 28.4 °F 16.6 °F 21.2 °F 74% 29.81 in 10.0 mi NW 16.1 mph 23.0 mph N/A   Overcast
6:15 AM 28.4 °F 18.0 °F 21.2 °F 74% 29.82 in 10.0 mi WNW 12.7 mph 21.9 mph N/A   Overcast
6:35 AM 28.4 °F 15.8 °F 21.2 °F 74% 29.83 in 10.0 mi WNW 18.4 mph 23.0 mph N/A   Overcast
6:55 AM 28.4 °F 16.6 °F 21.2 °F 74% 29.84 in 10.0 mi WNW 16.1 mph 21.9 mph N/A   Overcast
7:15 AM 26.6 °F 14.7 °F 19.4 °F 74% 29.84 in 10.0 mi NW 15.0 mph - N/A   Overcast
7:35 AM 26.6 °F 14.3 °F 19.4 °F 74% 29.85 in 10.0 mi NW 16.1 mph 20.7 mph N/A   Overcast
7:55 AM 26.6 °F 15.7 °F 19.4 °F 74% 29.86 in 10.0 mi NNW 12.7 mph 20.7 mph N/A   Overcast
8:15 AM 26.6 °F 17.5 °F 19.4 °F 74% 29.87 in 10.0 mi NW 9.2 mph - N/A   Overcast
8:35 AM 26.6 °F 16.8 °F 19.4 °F 74% 29.88 in 10.0 mi NW 10.4 mph - N/A   Overcast
8:55 AM 28.4 °F 19.1 °F 21.2 °F 74% 29.89 in 10.0 mi WNW 10.4 mph - N/A   Overcast
9:15 AM 26.6 °F 15.2 °F 19.4 °F 74% 29.90 in 10.0 mi WNW 13.8 mph 19.6 mph N/A   Overcast
9:35 AM 26.6 °F 16.2 °F 19.4 °F 74% 29.92 in 10.0 mi NW 11.5 mph 19.6 mph N/A   Overcast
9:55 AM 26.6 °F 16.2 °F 19.4 °F 74% 29.92 in 10.0 mi NW 11.5 mph - N/A   Overcast
10:15 AM 28.4 °F 18.5 °F 19.4 °F 69% 29.94 in 10.0 mi WNW 11.5 mph - N/A   Overcast
10:35 AM 28.4 °F 17.5 °F 19.4 °F 69% 29.94 in 10.0 mi West 13.8 mph - N/A   Overcast
11:15 AM 28.4 °F 19.1 °F 19.4 °F 69% 29.96 in 10.0 mi WNW 10.4 mph - N/A   Overcast
11:35 AM 26.6 °F 16.8 °F 17.6 °F 69% 29.96 in 10.0 mi NW 10.4 mph - N/A   Mostly Cloudy
12:15 PM 28.4 °F 17.0 °F 17.6 °F 64% 29.97 in 10.0 mi WNW 15.0 mph 19.6 mph N/A   Mostly Cloudy
12:35 PM 28.4 °F 18.5 °F 19.4 °F 69% 29.97 in 10.0 mi WNW 11.5 mph - N/A   Mostly Cloudy
1:15 PM 28.4 °F 19.1 °F 17.6 °F 64% 29.98 in 10.0 mi NW 10.4 mph 16.1 mph N/A   Mostly Cloudy
1:35 PM 28.4 °F 18.5 °F 17.6 °F 64% 29.99 in 10.0 mi WNW 11.5 mph - N/A   Scattered Clouds
1:55 PM 28.4 °F 19.7 °F 17.6 °F 64% 29.99 in 10.0 mi WNW 9.2 mph - N/A   Scattered Clouds
2:15 PM 28.4 °F 20.4 °F 17.6 °F 64% 30.00 in 10.0 mi NW 8.1 mph - N/A   Scattered Clouds
2:35 PM 28.4 °F 18.0 °F 17.6 °F 64% 30.01 in 10.0 mi WNW 12.7 mph - N/A   Scattered Clouds
2:55 PM 28.4 °F 19.1 °F 17.6 °F 64% 30.02 in 10.0 mi NW 10.4 mph - N/A   Scattered Clouds
3:15 PM 28.4 °F 21.2 °F 17.6 °F 64% 30.02 in 10.0 mi NW 6.9 mph - N/A   Mostly Cloudy
3:35 PM 28.4 °F 20.4 °F 17.6 °F 64% 30.03 in 10.0 mi NW 8.1 mph - N/A   Overcast
3:55 PM 28.4 °F 22.2 °F 17.6 °F 64% 30.04 in 10.0 mi WNW 5.8 mph - N/A   Overcast
4:15 PM 28.4 °F 24.6 °F 17.6 °F 64% 30.05 in 10.0 mi WNW 3.5 mph - N/A   Overcast
4:35 PM 26.6 °F 21.2 °F 17.6 °F 69% 30.06 in 10.0 mi NW 4.6 mph - N/A   Scattered Clouds
4:55 PM 26.6 °F 22.6 °F 17.6 °F 69% 30.06 in 10.0 mi NNW 3.5 mph - N/A   Mostly Cloudy
5:15 PM 26.6 °F 22.6 °F 17.6 °F 69% 30.07 in 10.0 mi NNW 3.5 mph - N/A   Overcast
5:35 PM 26.6 °F 22.6 °F 17.6 °F 69% 30.07 in 10.0 mi North 3.5 mph - N/A   Overcast
6:15 PM 24.8 °F - 17.6 °F 74% 30.08 in 10.0 mi Calm Calm - N/A   Overcast
6:35 PM 24.8 °F - 17.6 °F 74% 30.09 in 10.0 mi Calm Calm - N/A   Overcast
6:55 PM 24.8 °F - 17.6 °F 74% 30.10 in 10.0 mi Calm Calm - N/A   Overcast
7:15 PM 24.8 °F - 17.6 °F 74% 30.10 in 10.0 mi Calm Calm - N/A   Overcast
7:35 PM 24.8 °F - 17.6 °F 74% 30.11 in 10.0 mi Calm Calm - N/A   Overcast
7:55 PM 24.8 °F - 17.6 °F 74% 30.11 in 10.0 mi Calm Calm - N/A   Overcast
8:15 PM 23.0 °F - 19.4 °F 86% 30.12 in 10.0 mi Calm Calm - N/A   Overcast
8:35 PM 23.0 °F - 17.6 °F 80% 30.12 in 10.0 mi Calm Calm - N/A   Overcast
8:55 PM 23.0 °F - 17.6 °F 80% 30.13 in 10.0 mi Calm Calm - N/A   Overcast
9:15 PM 21.2 °F - 17.6 °F 86% 30.14 in 10.0 mi Calm Calm - N/A   Overcast
9:35 PM 21.2 °F - 17.6 °F 86% 30.14 in 10.0 mi Calm Calm - N/A   Overcast
9:55 PM 21.2 °F - 15.8 °F 80% 30.15 in 10.0 mi Calm Calm - N/A   Scattered Clouds
10:15 PM 23.0 °F - 15.8 °F 74% 30.15 in 10.0 mi Calm Calm - N/A   Clear
10:35 PM 17.6 °F - 14.0 °F 86% 30.15 in 10.0 mi Calm Calm - N/A   Clear
10:55 PM 17.6 °F - 14.0 °F 86% 30.15 in 10.0 mi Calm Calm - N/A   Clear
11:15 PM 17.6 °F - 14.0 °F 86% 30.15 in 10.0 mi Calm Calm - N/A   Clear
11:35 PM 15.8 °F 10.2 °F 14.0 °F 93% 30.15 in 10.0 mi SSW 3.5 mph - N/A   Clear
11:55 PM 15.8 °F - 14.0 °F 93% 30.15 in 10.0 mi Calm Calm - N/A   Clear